Showing default

KANOPUS-V 3, 43180

Orbit data source: Space-Track

KANOPUS-V 3, 43180 is a payload satellite owned by VNIIEM (CIS) in SSO that was launched on Thu, 01 Feb 2018 UTC via a SOYUZ-2-1A launch vehicle from the Vostochny Cosmodrome (VOSTO). Payloads include a variety of satellites, spacecraft, and rockets equipped with specific instruments for various scientific and technological missions. These include communications satellites like Starlink; space stations such as the ISS; scientific satellites like the Hubble; Earth observation satellites from companies like Planet Labs, Umbra, and HawkEye 360; GPS; miniature CubeSats for education and research; and military/defense satellites.

Loading next visibility...
KANOPUS-V 3 details
Identifier
43180, 2018-014A
Orbit
SSO
Last TLE update8 hours ago
Origin
Flag of CISVNIIEM (CIS)
ManufacturerVNIIEM
MissionOperational Civil Imaging
Bus & MotorKANOPUS, Unknown motor
Mass490 kg wet, 490 kg dry
Launch date (UTC)
2018-02-01 (7 years ago)
Launch vehicle
SOYUZ-2-1A
Launch site
Vostochny Cosmodrome (VOSTO)
Object type
Payload
Rocket body
Debris
Shape & HBRBox + 2 Pan, 6 m
Radar Cross Section1.665 m², Large (>1 m²)

Expand to show TLE details & history

TLE from 8 hours ago
0 KANOPUS-V 3
1 43180U 18014A   24361.24440701  .00006981  00000-0  30691-3 0  9994
2 43180  97.3882 265.7346 0001673  93.0535 267.0892 15.22198070382855
Epoch: 2024-12-26T05:51Z
Definitive object data (Epoch: 2024-12-26T05:51:56.765Z)
Latitude-0.00012°
Longitude82.52151°
Altitude502.364 km
Speed7.613 km/s
True Right ascension17h 42m 56s
True Declination0° 00' 00"
Sunlit
Object was in daylight at TLE epoch
Visualization TLE readout
Latitude40.64866°
Longitude-90.77401°
Altitude504.339 km
Speed7.616 km/s
Apparent Right ascension04h 01m 34s
Apparent Declination2° 38' 26"
Sunlit
Object is in full shadow
Visualization observer readout
Local Sidereal Time13:43:35
Azimuth314.892° NW
Elevation-37.006°
Doppler factor1
Orbital elements
Apogee altitude497.324 km
Perigee altitude495.024 km
Semi-major axis6,874.311 km
Eccentricity0.0001673
Inclination97.3882°
RAAN265.7346°
Arg. of periapsis93.0535°
True anomaly267.07005°
Mean anomaly267.0892°
Eccentric anomaly267.07963°
Mean motion3.80802 °/min
BSTAR0.00030691
Orbital period94.54 mins
Loading maneuver chart data...
Loading historical data...
Loading historical data...
Loading historical data...
Loading historical data...
Loading historical data...
Loading historical data...
Loading historical data...

KANOPUS-V 3 Visibility forecast

Observer location: undefined°, undefined

Span
Click to sort rows by Start time (UTC) header in descending order
Start Az.
Max El. time (UTC)
Max El. Az.
Max El.
End time (UTC)
End Az.
4 mins2024-12-26 17:03:45.878Z109.484° ESE2024-12-26 17:05:45.878Z71.864° E18.234°2024-12-26 17:07:45.878Z32.112° NE
4 mins2024-12-26 18:37:45.878Z224.564° SW2024-12-26 18:39:45.878Z272.501° WNW22.224°2024-12-26 18:41:45.878Z312.631° NW
5 mins2024-12-27 06:06:45.878Z48.362° ENE2024-12-27 06:08:45.878Z93.656° ESE24.226°2024-12-27 06:11:45.878Z153.823° SSE
|